Weather History for Ft. Stewart, GA

Change the Weather History Date:

Monday, November 19, 2012

  Actual Average Record
Temperature  
Mean Temperature 58 °F -  
Max Temperature 64 °F 71 °F 82 °F (1978)
Min Temperature 51 °F 49 °F 25 °F (2008)
Degree Days  
Heating Degree Days 7    
Growing Degree Days 8 (Base 50)    
Moisture  
Dew Point 51 °F    
Average Humidity 83    
Maximum Humidity 95    
Minimum Humidity 68    
Precipitation  
Precipitation 0.00 in - - ()
Sea Level Pressure  
Sea Level Pressure 30.18 in    
Wind  
Wind Speed 9 mph (North)    
Max Wind Speed 14 mph    
Max Gust Speed 20 mph    
Visibility 10 miles    
Events Rain    
Averages and records for this station are not official NWS values.
T = Trace of Precipitation, MM = Missing Value Source: NWS Daily Summary

Daily Weather History Graph

Daily Weather History Graph

Search for Another Location

Airport:

Trip Planner

Search our weather history database for the weather conditions in past years. The results will help you decide how hot, cold, wet, or windy it might be!

Date:

Astronomy

Nov. 19, 2012 Rise Set
Actual Time 6:58 AM EST 5:24 PM EST
Civil Twilight 6:32 AM EST 5:50 PM EST
Nautical Twilight 6:02 AM EST 6:20 PM EST
Astronomical Twilight 5:33 AM EST 6:49 PM EST
Moon 12:08 PM EST (11/19) 11:40 PM EST (11/19)
Length of Visible Light 11h 18m
Length of Day
10h 25m
Waxing Crescent, 40% of the Moon is Illuminated
Nov 19
Waxing Crescent
Nov 20
First Quarter
Nov 28
Full
Dec 6
Last Quarter
Dec 13
New

Hourly Weather History & Observations

Time (EST) Temp. Dew Point Humidity Pressure Visibility Wind Dir Wind Speed Gust Speed Precip Events Conditions
12:13 AM 53.6 °F 50.0 °F 88% 30.22 in 10.0 mi North 11.5 mph - N/A   Overcast
12:50 AM 53.6 °F 50.0 °F 88% 30.21 in 10.0 mi North 12.7 mph - N/A   Overcast
12:55 AM 54.5 °F 50.0 °F 85% 30.21 in 10.0 mi North 13.8 mph - N/A   Overcast
1:28 AM 53.6 °F 50.0 °F 88% 30.21 in 10.0 mi North 13.8 mph - N/A   Overcast
1:31 AM 53.6 °F 50.0 °F 88% 30.20 in 10.0 mi North 10.4 mph - N/A   Overcast
1:35 AM 53.6 °F 50.0 °F 88% 30.20 in 10.0 mi North 13.8 mph 19.6 mph N/A   Overcast
1:55 AM 54.0 °F 50.0 °F 86% 30.21 in 10.0 mi North 11.5 mph 18.4 mph N/A   Overcast
2:06 AM 53.6 °F 50.0 °F 88% 30.20 in 10.0 mi North 11.5 mph 19.6 mph N/A   Overcast
2:07 AM 53.6 °F 50.0 °F 88% 30.20 in 10.0 mi North 10.4 mph 19.6 mph N/A   Overcast
2:13 AM 53.6 °F 50.0 °F 88% 30.20 in 10.0 mi North 9.2 mph - N/A   Overcast
2:14 AM 53.6 °F 50.0 °F 88% 30.20 in 10.0 mi North 9.2 mph 17.3 mph N/A   Overcast
2:21 AM 53.6 °F 50.0 °F 88% 30.20 in 10.0 mi North 8.1 mph 17.3 mph N/A   Overcast
2:22 AM 53.6 °F 50.0 °F 88% 30.20 in 10.0 mi North 6.9 mph - N/A   Overcast
2:49 AM 53.6 °F 50.0 °F 88% 30.20 in 10.0 mi North 10.4 mph - N/A Rain Light Rain
2:55 AM 54.3 °F 49.8 °F 85% 30.19 in 10.0 mi North 9.2 mph 17.3 mph 0.00 in Rain Light Rain
2:58 AM 53.6 °F 50.0 °F 88% 30.19 in 10.0 mi NNE 9.2 mph 17.3 mph N/A   Overcast
3:05 AM 55.4 °F 50.0 °F 82% 30.20 in 10.0 mi North 5.8 mph - N/A Rain Light Rain
3:14 AM 55.4 °F 50.0 °F 82% 30.19 in 10.0 mi North 8.1 mph - N/A   Overcast
3:55 AM 54.3 °F 49.8 °F 85% 30.19 in 10.0 mi North 11.5 mph - 0.00 in   Overcast
4:43 AM 53.6 °F 50.0 °F 88% 30.19 in 10.0 mi NNW 10.4 mph - N/A   Overcast
4:55 AM 54.5 °F 49.5 °F 83% 30.19 in 10.0 mi North 9.2 mph - N/A   Overcast
5:55 AM 54.0 °F 49.3 °F 84% 30.21 in 10.0 mi North 8.1 mph - N/A   Overcast
6:55 AM 53.6 °F 49.5 °F 86% 30.22 in 10.0 mi North 9.2 mph - N/A   Overcast
7:00 AM 53.6 °F 50.0 °F 88% 30.22 in 10.0 mi North 8.1 mph - N/A   Overcast
7:46 AM 53.6 °F 50.0 °F 88% 30.22 in 10.0 mi North 9.2 mph - N/A   Overcast
7:55 AM 53.6 °F 49.3 °F 85% 30.22 in 10.0 mi North 6.9 mph - N/A   Overcast
8:55 AM 54.1 °F 49.1 °F 83% 30.23 in 10.0 mi North 10.4 mph - N/A   Overcast
9:55 AM 55.4 °F 49.3 °F 80% 30.23 in 10.0 mi North 6.9 mph - N/A   Overcast
10:24 AM 57.2 °F 50.0 °F 77% 30.23 in 10.0 mi North 4.6 mph - N/A   Overcast
10:55 AM 57.0 °F 49.6 °F 76% 30.22 in 10.0 mi North 5.8 mph - N/A   Overcast
11:55 AM 57.9 °F 50.2 °F 75% 30.21 in 10.0 mi North 4.6 mph - N/A   Overcast
12:18 PM 59.0 °F 50.0 °F 72% 30.19 in 10.0 mi North 11.5 mph - N/A   Overcast
12:55 PM 58.5 °F 51.4 °F 77% 30.17 in 10.0 mi North 6.9 mph - N/A   Overcast
1:05 PM 59.0 °F 51.8 °F 77% 30.17 in 10.0 mi North 9.2 mph - N/A   Overcast
1:55 PM 61.2 °F 52.7 °F 74% 30.15 in 10.0 mi Calm Calm - N/A   Overcast
2:55 PM 63.0 °F 52.9 °F 70% 30.14 in 10.0 mi North 4.6 mph - N/A   Overcast
3:55 PM 64.0 °F 53.4 °F 68% 30.14 in 10.0 mi Calm Calm - N/A   Overcast
4:23 PM 64.4 °F 53.6 °F 68% 30.14 in 10.0 mi Calm Calm - N/A   Overcast
4:51 PM 62.6 °F 53.6 °F 72% 30.14 in 10.0 mi Calm Calm - N/A   Overcast
4:55 PM 63.0 °F 53.8 °F 72% 30.14 in 10.0 mi Calm Calm - N/A   Overcast
5:28 PM 62.6 °F 53.6 °F 72% 30.14 in 10.0 mi Calm Calm - N/A   Overcast
5:55 PM 59.2 °F 53.2 °F 81% 30.14 in 10.0 mi Calm Calm - N/A   Partly Cloudy
7:24 PM 60.8 °F 53.6 °F 77% 30.14 in 10.0 mi Calm Calm - N/A   Overcast
7:55 PM 59.2 °F 53.1 °F 80% 30.15 in 10.0 mi Calm Calm - N/A   Overcast
8:55 PM 55.2 °F 52.5 °F 91% 30.15 in 10.0 mi Calm Calm - N/A   Scattered Clouds
9:28 PM 55.4 °F 53.6 °F 94% 30.15 in 10.0 mi Calm Calm - N/A   Mostly Cloudy
9:46 PM 53.6 °F 51.8 °F 94% 30.15 in 10.0 mi Calm Calm - N/A   Overcast
9:55 PM 52.7 °F 51.3 °F 95% 30.14 in 10.0 mi Calm Calm - N/A   Mostly Cloudy
10:55 PM 54.5 °F 51.3 °F 89% 30.14 in 10.0 mi Calm Calm - N/A   Mostly Cloudy
11:55 PM 51.3 °F 49.8 °F 95% 30.13 in 10.0 mi Calm Calm - N/A   Clear